Location: Monte Intupa
(16.6647°S, 37.0814°E)
Time: 16:52:23
(UTC+00:00)

Daily predictions for brighter satellites

Satellite Brightness Start Highest point End
(mag) Time Altitude Azimuth Time Altitude Azimuth Time Altitude Azimuth
CZ-3 Stage 3 4.4 14:36:52 10° WNW 14:43:29 84° SSW 15:30:22 10° ESE
Centaur AC-42 4.3 15:15:21 10° NNW 15:19:49 28° NE 15:33:37 10° E
In-Cosmos 22 4.1 15:24:30 10° S 15:29:47 72° E 15:35:05 10° NNE
Cosmos 1818 4.2 15:26:16 10° S 15:31:04 32° ESE 15:35:50 10° NE
SL-16 R/B 2.6 15:25:56 10° S 15:31:15 40° ESE 15:36:31 10° NE
ARGOS Delta rocket 4.4 15:28:38 10° SE 15:32:36 32° E 15:36:33 10° NNE
Cosmos 1707 3.9 15:29:17 10° SSW 15:33:03 47° W 15:36:45 10° NNW
Cosmos 1570 Rocket 4.2 15:28:31 10° SSW 15:33:53 83° WNW 15:39:08 10° N
CZ-4B R/B 3.6 15:28:30 10° S 15:34:11 76° WSW 15:39:45 10° NNW
Cosmos 1674 3.5 15:31:09 10° SSE 15:34:35 31° E 15:38:00 10° NNE
GPS 2-12 Rocket1 3.8 15:29:57 10° W 15:34:41 58° NNW 15:39:26 10° ENE
Cosmos 1814 Rocket 4.0 15:29:56 10° S 15:35:18 72° ESE 15:40:33 10° NNE
KORONAS-FOTON 4.4 15:37:21 10° SSE 15:40:58 36° E 15:44:35 10° NNE
Cosmos 1655 Rocket 4.1 15:36:04 10° S 15:42:12 54° E 15:48:19 10° NNE
SEDSat Delta rocket 3.4 15:37:47 10° WSW 15:42:37 87° SSE 15:48:12 10° ENE
Cosmos 1733 3.2 15:39:47 10° N 15:43:37 87° W 15:47:30 10° S
Okean O Rocket 2.7 15:41:37 10° S 15:45:54 47° WSW 15:50:08 10° NNW
ATLAS 5 CENTAUR R/B 1.7 15:41:52 10° SSW 15:46:19 48° ESE 15:50:17 10° NE
Hubble Space Telescope 3.9 15:45:16 10° NW 15:46:39 11° NNW 15:48:02 10° NNW
CZ-3C R/B 3.2 15:43:32 10° WNW 15:47:02 41° N 16:02:39 10° ENE
AQUARIUS 4.3 15:42:44 10° S 15:47:16 84° WSW 15:51:45 10° NNW
SL-4 R/B 4.2 15:45:25 10° NNE 15:48:13 15° ENE 15:50:53 10° E
Cosmos 1455 Rocket 3.3 15:44:03 10° NNE 15:48:19 48° E 15:52:39 10° SSE
CREW DRAGON DEMO-1 DEB 3.8 15:47:17 10° SSW 15:50:02 28° SE 15:52:44 10° ENE
CORIOLIS 4.2 15:47:35 10° SSE 15:52:59 90° E 15:58:19 10° NNW
ATLAS 2AS CENTAUR RB 3.5 15:39:55 10° WNW 15:54:08 42° N 15:57:35 10° ENE
YAOGAN 1 4.2 15:57:21 15° ESE 15:58:33 16° E 16:01:15 10° NE
SWIFT 2.2 15:54:30 10° WSW 15:58:42 80° SSE 16:02:14 14° E
Cosmos 2292 Rocket 3.2 15:56:07 10° SSE 15:58:57 35° E 16:01:41 10° NNE
Okean-O 3.3 15:58:08 10° SE 16:02:10 33° E 16:06:10 10° NNE
USA 215 3.3 16:00:55 10° NE 16:07:25 89° NW 16:14:00 10° SW
CZ-2C R/B 3.6 16:05:23 10° ENE 16:09:16 22° ESE 16:12:38 12° SSE
Lacrosse 4 Rocket 2.2 16:07:59 10° NNE 16:11:28 28° ENE 16:12:35 25° ESE
FengYun 1-2 T 4.3 16:08:13 10° SSE 16:13:55 87° ENE 16:19:34 10° NNW
Cosmos 2322 Rocket 2.3 16:12:59 10° SSW 16:18:40 82° WNW 16:24:16 10° NNE
Cosmos 2237 4.3 16:15:22 10° S 16:20:55 50° ESE 16:26:25 10° NNE
GEOS 3 Rocket 3.5 16:15:54 10° NE 16:21:10 74° ESE 16:26:23 10° SSW
Meteor 2-5 Rocket 3.8 16:19:56 10° S 16:25:35 84° W 16:31:19 10° N
DMSP B5D2-2 4.5 16:25:10 10° NE 16:29:57 38° ESE 16:34:46 10° S
Cosmos 1544 Rocket 3.9 16:25:38 10° NNW 16:30:03 67° W 16:34:31 10° S
Cosmos 1953 2.7 16:27:58 10° NNE 16:31:41 42° E 16:31:41 42° E
ASTEX 1 4.4 16:27:04 10° S 16:31:51 47° W 16:36:36 10° NNW
Delta 202 4.1 16:26:16 10° W 16:32:07 82° S 16:36:11 30° E
Cosmos 2297 Rocket 2.7 16:27:14 10° N 16:32:25 38° ENE 16:33:35 34° ESE
CZ-4 R/B 1.3 16:34:13 35° SSE 16:35:54 72° ENE 16:39:57 10° N
ASTRO E2 4.0 16:33:31 10° SW 16:36:17 26° S 16:36:17 26° S
SL-14 R/B 3.0 16:34:13 15° S 16:37:21 79° E 16:41:12 10° N
NOSS 3-3 (A) 3.7 16:33:44 10° SSW 16:39:27 53° ESE 16:44:50 10° NE
NOSS 3-3 (C) 3.8 16:33:50 10° SSW 16:39:32 52° ESE 16:44:56 10° NE
SL-24 R/B - RUBIN 2 3.8 16:38:37 10° SSW 16:43:15 82° WNW 16:48:28 10° NNE
SJ 16-02 3.6 16:41:14 10° NNE 16:41:45 12° NE 16:41:45 12° NE
ASC 2 Rocket 3.9 16:40:28 10° NW 16:46:04 43° NNE 16:47:00 38° NE
Cosmos 1417 Rocket 4.4 16:40:33 10° N 16:46:40 65° E 16:49:57 28° SSE
Cosmos 1809 Rocket 4.3 16:40:54 10° S 16:47:07 76° E 16:53:17 10° N
USA 234 3.7 16:48:30 37° E 16:49:48 40° NE 16:55:51 10° NNW
Cosmos 1726 2.7 16:46:48 10° N 16:49:31 48° N 16:49:31 48° N
Cosmos 2084 Rocket 3.6 16:46:08 10° NNW 16:50:38 77° WSW 16:51:27 58° S
Meteor 1-24 Rocket 4.1 16:46:04 10° SSW 16:51:29 62° W 16:57:04 10° N
Cosmos 1939 Rocket 3.7 16:49:41 22° S 16:52:05 51° WSW 16:56:05 10° NNW
Meteor 2-8 Rocket 4.3 16:46:58 10° N 16:52:58 64° E 16:54:50 44° SSE
Centaur AC-119 2.7 16:43:41 10° WNW 16:53:04 64° SSW 16:53:27 60° S
Cosmos 2360 Rocket 2.3 16:50:59 10° SSW 16:56:36 75° WNW 17:02:11 10° N
CZ-2D R/B 4.2 17:00:07 40° SW 17:00:51 45° WSW 17:04:33 10° NNW
MOS 1 Rocket 4.1 16:56:12 10° N 17:01:22 59° W 17:06:45 10° SSW
Palapa 6 Rocket 3.6 17:03:26 10° WNW 17:08:12 58° NNW 17:08:12 58° NNW
GPS 2-14 Rocket1 4.5 17:06:01 10° WSW 17:07:49 26° WSW 17:07:49 26° WSW
Cosmos 1340 Rocket 4.4 17:07:59 10° NNW 17:11:31 32° W 17:12:03 31° WSW
Cosmos 1626 4.4 17:09:24 10° SW 17:12:26 24° W 17:15:27 10° NW
CZ-2C R/B 3.9 17:15:21 44° NNE 17:15:21 44° NNE 17:19:23 10° N
Cosmos 2227 Rocket 2.1 17:09:46 10° NNW 17:15:04 80° NNW 17:15:04 80° NNW
Cosmos 2219 4.0 17:17:58 10° NW 17:23:22 47° WSW 17:24:33 41° SW
SL-4 R/B 3.7 17:23:01 10° NW 17:26:31 39° W 17:26:31 39° W
S3M 4.4 17:25:26 10° NNW 17:31:41 61° W 17:32:59 50° SW
H-2A R/B 4.3 18:00:49 19° NW 18:00:49 19° NW 18:02:22 10° NNW
